Central Point, OR

4:24 PM PST on January 20, 2017 (GMT -0800)
Rogue Valley International-Medford

Weather History for KMFR - September, 2013

Change the Weather History Date:

Sunday, September 22, 2013

  Actual Average Record
Temperature  
Mean Temperature 58 °F 65 °F  
Max Temperature 65 °F 82 °F 102 °F (1987)
Min Temperature 51 °F 48 °F 33 °F (1961)
Degree Days  
Heating Degree Days 7 3  
Month to date heating degree days 23 32  
Since 1 July heating degree days 23 42  
Cooling Degree Days 0 3  
Month to date cooling degree days 142 96  
Year to date cooling degree days 1057 803  
Growing Degree Days 8 (Base 50)    
Moisture  
Dew Point 50 °F    
Average Humidity 73    
Maximum Humidity 93    
Minimum Humidity 52    
Precipitation  
Precipitation 0.10 in 0.02 in 0.38 in (1923)
Month to date precipitation 1.13 0.39  
Year to date precipitation 5.68 10.53  
Snow  
Snow 0.00 in 0.00 in - ()
Month to date snowfall 0.0 0.0  
Since 1 July snowfall 0.0 0.0  
Snow Depth 0.00 in    
Sea Level Pressure  
Sea Level Pressure 29.91 in    
Wind  
Wind Speed 3 mph (West)    
Max Wind Speed 12 mph    
Max Gust Speed 13 mph    
Visibility 10 miles    
Events Rain    
T = Trace of Precipitation, MM = Missing Value Source: NWS Daily Summary

Daily Weather History Graph

Daily Weather History Graph

Search for Another Location

Airport or City:

Trip Planner

Search our weather history database for the weather conditions in past years. The results will help you decide how hot, cold, wet, or windy it might be!

Date:

Astronomy

Sep. 22, 2013 Rise Set
Actual Time 6:59 AM PDT 7:08 PM PDT
Civil Twilight 6:31 AM PDT 7:36 PM PDT
Nautical Twilight 5:58 AM PDT 8:08 PM PDT
Astronomical Twilight 5:24 AM PDT 8:42 PM PDT
Moon 8:56 PM PDT (9/22) 10:29 AM PDT (9/22)
Length of Visible Light 13h 04m
Length of Day
12h 08m
Waning Gibbous, 88% of the Moon is Illuminated
Sep 22
Waning Gibbous
Sep 26
Last Quarter
Oct 4
New
Oct 11
First Quarter
Oct 18
Full

Hourly Weather History & Observations

Time (PDT) Temp. Dew Point Humidity Pressure Visibility Wind Dir Wind Speed Gust Speed Precip Events Conditions
12:53 AM 55.0 °F 51.1 °F 86% 29.88 in 10.0 mi SSW 3.5 mph - N/A   Mostly Cloudy
1:53 AM 52.0 °F 48.0 °F 86% 29.90 in 10.0 mi South 3.5 mph - N/A   Clear
2:53 AM 52.0 °F 48.0 °F 86% 29.91 in 10.0 mi SSW 3.5 mph - N/A   Overcast
3:53 AM 52.0 °F 48.0 °F 86% 29.90 in 10.0 mi South 3.5 mph - N/A   Mostly Cloudy
4:07 AM 51.8 °F 48.2 °F 88% 29.91 in 10.0 mi SSE 4.6 mph - N/A   Overcast
4:37 AM 51.8 °F 48.2 °F 88% 29.91 in 10.0 mi SSW 4.6 mph - N/A   Overcast
4:53 AM 52.0 °F 46.9 °F 83% 29.90 in 10.0 mi South 3.5 mph - N/A   Overcast
5:53 AM 52.0 °F 46.9 °F 83% 29.91 in 10.0 mi Calm Calm - N/A   Overcast
6:53 AM 52.0 °F 46.9 °F 83% 29.92 in 10.0 mi West 4.6 mph - N/A   Mostly Cloudy
7:53 AM 52.0 °F 48.0 °F 86% 29.93 in 10.0 mi Calm Calm - N/A   Mostly Cloudy
8:53 AM 53.1 °F 48.0 °F 83% 29.94 in 10.0 mi Calm Calm - N/A   Overcast
9:53 AM 54.0 °F 50.0 °F 86% 29.95 in 10.0 mi Calm Calm - 0.00 in   Overcast
10:53 AM 57.9 °F 50.0 °F 75% 29.94 in 10.0 mi Calm Calm - N/A   Overcast
11:53 AM 60.1 °F 48.9 °F 67% 29.91 in 10.0 mi Calm Calm - N/A   Overcast
12:53 PM 62.1 °F 48.0 °F 60% 29.90 in 10.0 mi East 3.5 mph - N/A   Overcast
1:53 PM 63.0 °F 48.0 °F 58% 29.89 in 10.0 mi NW 5.8 mph - N/A   Overcast
2:53 PM 64.0 °F 46.9 °F 54% 29.88 in 10.0 mi NNW 3.5 mph - N/A   Overcast
3:53 PM 64.0 °F 48.0 °F 56% 29.87 in 10.0 mi North 4.6 mph - N/A   Overcast
4:53 PM 64.0 °F 48.0 °F 56% 29.87 in 10.0 mi North 4.6 mph - N/A   Overcast
5:53 PM 63.0 °F 50.0 °F 63% 29.87 in 10.0 mi North 8.1 mph - 0.00 in   Overcast
6:53 PM 57.9 °F 52.0 °F 81% 29.91 in 9.0 mi NNE 8.1 mph - 0.01 in Rain Light Rain
7:53 PM 57.0 °F 53.1 °F 87% 29.93 in 10.0 mi NE 6.9 mph - 0.00 in   Overcast
8:53 PM 57.0 °F 53.1 °F 87% 29.95 in 10.0 mi NE 4.6 mph - 0.01 in   Overcast
9:53 PM 57.0 °F 54.0 °F 89% 29.96 in 6.0 mi WSW 3.5 mph - 0.00 in Rain Light Rain
10:53 PM 55.9 °F 54.0 °F 93% 29.95 in 7.0 mi Calm Calm - 0.02 in Rain Light Rain
11:53 PM 55.9 °F 54.0 °F 93% 29.96 in 3.0 mi Calm Calm - 0.03 in Rain Light Rain